| time (UTC) | temp C | wind direction | speed KPH | gust KPH | rain 1hr cm | rain 24hr cm | rain mn cm | humidity % | barometer mb |
| 20260510130051 | 11 | 145 | 1.6 | 4.8 | 0.00 | 0.71 | 0.00 | 100 | 1011.7 |
| 20260510124559 | 10 | 312 | 0.0 | 1.6 | 0.00 | 0.71 | 0.00 | 100 | 1011.7 |
| 20260510123055 | 10 | 0 | 0.0 | 1.6 | 0.00 | 0.71 | 0.00 | 100 | 1011.7 |
| 20260510121552 | 8 | 0 | 0.0 | 3.2 | 0.00 | 0.71 | 0.00 | 100 | 1011.5 |
| 20260510120054 | 8 | 0 | 0.0 | 1.6 | 0.00 | 0.71 | 0.00 | 100 | 1011.5 |
| 20260510114555 | 8 | 0 | 0.0 | 3.2 | 0.00 | 0.71 | 0.00 | 100 | 1011.3 |
| 20260510113054 | 7 | 0 | 0.0 | 0.0 | 0.00 | 0.71 | 0.00 | 100 | 1011.3 |
| 20260510111553 | 7 | 0 | 0.0 | 0.0 | 0.00 | 0.71 | 0.00 | 100 | 1011.2 |
| 20260510110052 | 7 | 0 | 0.0 | 0.0 | 0.00 | 0.71 | 0.00 | 100 | 1011.2 |
| 20260510104558 | 7 | 0 | 0.0 | 0.0 | 0.00 | 0.74 | 0.00 | 100 | 1011.0 |
| 20260510103053 | 6 | 0 | 0.0 | 0.0 | 0.00 | 0.74 | 0.00 | 100 | 1010.9 |
| 20260510101554 | 6 | 0 | 0.0 | 0.0 | 0.00 | 0.74 | 0.00 | 100 | 1010.9 |
| 20260510100112 | 6 | 0 | 0.0 | 0.0 | 0.00 | 0.74 | 0.00 | 100 | 1010.7 |
| 20260510094602 | 7 | 0 | 0.0 | 0.0 | 0.00 | 0.89 | 0.00 | 100 | 1010.5 |
| 20260510093100 | 7 | 0 | 0.0 | 0.0 | 0.00 | 0.89 | 0.00 | 100 | 1010.0 |
| 20260510091556 | 7 | 0 | 0.0 | 0.0 | 0.00 | 0.89 | 0.00 | 100 | 1010.2 |
| 20260510090100 | 7 | 0 | 0.0 | 0.0 | 0.00 | 0.89 | 0.00 | 100 | 1010.3 |
| 20260510084609 | 7 | 0 | 0.0 | 0.0 | 0.00 | 1.22 | 0.00 | 100 | 1010.0 |
| 20260510083055 | 7 | 27 | 0.0 | 1.6 | 0.00 | 1.22 | 0.00 | 100 | 1009.9 |
| 20260510081556 | 7 | 0 | 0.0 | 0.0 | 0.00 | 1.22 | 0.00 | 100 | 1009.7 |
| 20260510080057 | 6 | 0 | 0.0 | 0.0 | 0.00 | 1.22 | 0.00 | 100 | 1009.9 |
| 20260510074555 | 6 | 0 | 0.0 | 0.0 | 0.00 | 1.57 | 0.00 | 100 | 1010.1 |
| 20260510073104 | 6 | 0 | 0.0 | 0.0 | 0.00 | 1.57 | 0.00 | 100 | 1010.1 |
| 20260510071552 | 7 | 0 | 0.0 | 3.2 | 0.00 | 1.57 | 0.00 | 100 | 1010.1 |
| 20260510070055 | 7 | 243 | 1.6 | 6.4 | 0.00 | 1.57 | 0.00 | 100 | 1010.4 |
| 20260510064554 | 7 | 321 | 0.0 | 1.6 | 0.00 | 1.57 | 0.00 | 100 | 1010.8 |
| 20260510063054 | 7 | 0 | 0.0 | 0.0 | 0.00 | 1.57 | 0.00 | 100 | 1010.7 |
| 20260510061558 | 7 | 0 | 0.0 | 3.2 | 0.00 | 1.57 | 0.00 | 100 | 1010.6 |
| 20260510060055 | 7 | 0 | 0.0 | 0.0 | 0.00 | 1.57 | 0.00 | 100 | 1010.1 |
| 20260510054549 | 7 | 0 | 0.0 | 4.8 | 0.00 | 1.57 | 0.00 | 100 | 1010.0 |
| 20260510053049 | 6 | 0 | 0.0 | 3.2 | 0.00 | 1.57 | 0.00 | 100 | 1010.1 |
| 20260510051550 | 6 | 0 | 0.0 | 0.0 | 0.00 | 1.57 | 0.00 | 100 | 1010.3 |
| 20260510050053 | 6 | 0 | 0.0 | 0.0 | 0.00 | 1.57 | 0.00 | 100 | 1010.3 |
| 20260510044559 | 6 | 0 | 0.0 | 0.0 | 0.00 | 1.57 | 0.00 | 100 | 1010.3 |
| 20260510043108 | 6 | 0 | 0.0 | 0.0 | 0.00 | 1.57 | 0.00 | 100 | 1010.1 |
| 20260510041551 | 7 | 0 | 0.0 | 0.0 | 0.00 | 1.57 | 0.00 | 100 | 1010.1 |
| 20260510040100 | 7 | 0 | 0.0 | 0.0 | 0.00 | 1.57 | 0.00 | 100 | 1010.1 |
| 20260510034556 | 7 | 0 | 0.0 | 0.0 | 0.00 | 1.57 | 1.57 | 100 | 1010.2 |
| 20260510033132 | 7 | 0 | 0.0 | 0.0 | 0.00 | 1.57 | 1.57 | 100 | 1010.3 |
| 20260510031601 | 7 | 0 | 0.0 | 1.6 | 0.00 | 1.57 | 1.57 | 100 | 1010.4 |
| 20260510024555 | 7 | 0 | 0.0 | 0.0 | 0.00 | 1.57 | 1.57 | 100 | 1010.1 |
| 20260510023052 | 8 | 0 | 0.0 | 0.0 | 0.00 | 1.57 | 1.57 | 100 | 1010.1 |
| 20260510021552 | 8 | 0 | 0.0 | 1.6 | 0.00 | 1.57 | 1.57 | 100 | 1009.9 |
| 20260510020054 | 8 | 0 | 0.0 | 0.0 | 0.00 | 1.57 | 1.57 | 100 | 1009.8 |
| 20260510014553 | 8 | 0 | 0.0 | 0.0 | 0.00 | 1.57 | 1.57 | 100 | 1009.8 |
| 20260510013053 | 8 | 0 | 0.0 | 0.0 | 0.00 | 1.57 | 1.57 | 100 | 1009.9 |
| 20260510011558 | 8 | 0 | 0.0 | 0.0 | 0.00 | 1.57 | 1.57 | 100 | 1009.8 |
| 20260510010050 | 8 | 30 | 0.0 | 1.6 | 0.00 | 1.57 | 1.57 | 100 | 1009.8 |
| 20260510004553 | 8 | 0 | 0.0 | 1.6 | 0.00 | 1.57 | 1.57 | 100 | 1009.4 |
| 20260510003053 | 8 | 0 | 0.0 | 0.0 | 0.00 | 1.57 | 1.57 | 100 | 1009.4 |
| 20260510001550 | 9 | 0 | 0.0 | 0.0 | 0.00 | 1.57 | 1.57 | 100 | 1009.1 |
| 20260510000104 | 9 | 0 | 0.0 | 0.0 | 0.00 | 1.57 | 1.57 | 100 | 1009.0 |
| 20260509234559 | 10 | 0 | 0.0 | 0.0 | 0.00 | 1.57 | 1.57 | 100 | 1008.8 |
| 20260509233051 | 10 | 0 | 0.0 | 4.8 | 0.00 | 1.57 | 1.57 | 100 | 1008.5 |
| 20260509231550 | 11 | 340 | 0.0 | 0.0 | 0.00 | 1.57 | 1.57 | 100 | 1008.3 |
| 20260509230050 | 12 | 0 | 0.0 | 0.0 | 0.00 | 1.57 | 1.57 | 100 | 1008.5 |
| 20260509224552 | 12 | 138 | 1.6 | 1.6 | 0.00 | 1.57 | 1.57 | 100 | 1008.3 |
| 20260509223059 | 12 | 0 | 0.0 | 3.2 | 0.00 | 1.57 | 1.57 | 100 | 1008.4 |
| 20260509221550 | 12 | 0 | 0.0 | 0.0 | 0.00 | 1.57 | 1.57 | 100 | 1008.6 |
| 20260509220049 | 11 | 0 | 0.0 | 0.0 | 0.00 | 1.57 | 1.57 | 100 | 1008.7 |
| 20260509214551 | 11 | 0 | 0.0 | 0.0 | 0.00 | 1.57 | 1.57 | 100 | 1008.6 |
| 20260509213049 | 11 | 0 | 0.0 | 1.6 | 0.00 | 1.57 | 1.57 | 100 | 1008.7 |
| 20260509211550 | 11 | 0 | 0.0 | 0.0 | 0.00 | 1.57 | 1.57 | 100 | 1008.6 |
| 20260509210057 | 10 | 0 | 0.0 | 0.0 | 0.00 | 1.57 | 1.57 | 100 | 1008.7 |
| 20260509204553 | 10 | 0 | 0.0 | 0.0 | 0.00 | 1.57 | 1.57 | 100 | 1009.0 |
| 20260509203049 | 9 | 320 | 3.2 | 4.8 | 0.00 | 1.57 | 1.57 | 100 | 1009.1 |
| 20260509201551 | 9 | 0 | 0.0 | 0.0 | 0.00 | 1.57 | 1.57 | 100 | 1009.3 |
| 20260509200109 | 9 | 0 | 0.0 | 4.8 | 0.00 | 1.57 | 1.57 | 100 | 1009.6 |
| 20260509194557 | 8 | 0 | 0.0 | 0.0 | 0.03 | 1.57 | 1.57 | 100 | 1009.7 |
| 20260509193057 | 8 | 27 | 3.2 | 6.4 | 0.03 | 1.57 | 1.57 | 100 | 1010.0 |
| 20260509191553 | 8 | 99 | 0.0 | 4.8 | 0.08 | 1.57 | 1.57 | 100 | 1010.1 |
| 20260509190101 | 8 | 0 | 0.0 | 1.6 | 0.10 | 1.57 | 1.57 | 100 | 1010.2 |
| 20260509184601 | 8 | 0 | 0.0 | 3.2 | 0.13 | 1.55 | 1.55 | 100 | 1010.4 |
| 20260509183059 | 8 | 125 | 0.0 | 3.2 | 0.15 | 1.55 | 1.55 | 100 | 1010.4 |
| 20260509181621 | 8 | 142 | 1.6 | 4.8 | 0.13 | 1.47 | 1.47 | 100 | 1010.4 |
| 20260509180055 | 8 | 0 | 0.0 | 3.2 | 0.13 | 1.47 | 1.47 | 100 | 1010.3 |
| 20260509174559 | 8 | 132 | 0.0 | 4.8 | 0.10 | 1.42 | 1.42 | 100 | 1010.1 |
| 20260509173103 | 8 | 0 | 0.0 | 3.2 | 0.13 | 1.40 | 1.40 | 100 | 1010.1 |
| 20260509171556 | 8 | 124 | 0.0 | 9.7 | 0.15 | 1.37 | 1.37 | 100 | 1010.1 |
| 20260509170057 | 8 | 149 | 3.2 | 9.7 | 0.18 | 1.32 | 1.32 | 100 | 1010.3 |
| 20260509164557 | 8 | 91 | 0.0 | 6.4 | 0.15 | 1.32 | 1.32 | 100 | 1010.7 |
| 20260509163056 | 8 | 0 | 0.0 | 1.6 | 0.13 | 1.27 | 1.27 | 100 | 1010.8 |
| 20260509161557 | 8 | 0 | 0.0 | 0.0 | 0.08 | 1.22 | 1.22 | 100 | 1010.7 |
| 20260509160057 | 7 | 0 | 0.0 | 0.0 | 0.05 | 1.17 | 1.17 | 100 | 1011.0 |
| 20260509154556 | 7 | 0 | 0.0 | 3.2 | 0.08 | 1.17 | 1.17 | 100 | 1011.2 |
| 20260509153054 | 7 | 0 | 0.0 | 1.6 | 0.08 | 1.14 | 1.14 | 100 | 1011.5 |
| 20260509151559 | 7 | 0 | 0.0 | 0.0 | 0.13 | 1.14 | 1.14 | 100 | 1011.7 |
| 20260509150053 | 6 | 0 | 0.0 | 0.0 | 0.13 | 1.12 | 1.12 | 100 | 1011.8 |
| 20260509144605 | 6 | 0 | 0.0 | 1.6 | 0.15 | 1.09 | 1.09 | 100 | 1011.9 |
| 20260509143108 | 6 | 0 | 0.0 | 1.6 | 0.15 | 1.07 | 1.07 | 100 | 1011.9 |
| 20260509141549 | 6 | 0 | 0.0 | 0.0 | 0.13 | 1.02 | 1.02 | 100 | 1012.1 |
| 20260509140100 | 6 | 0 | 0.0 | 1.6 | 0.13 | 0.99 | 0.99 | 100 | 1011.9 |
| 20260509134607 | 5 | 331 | 1.6 | 3.2 | 0.08 | 0.94 | 0.94 | 100 | 1011.9 |
| 20260509133052 | 5 | 0 | 0.0 | 0.0 | 0.05 | 0.91 | 0.91 | 100 | 1011.7 |
| 20260509131550 | 5 | 0 | 0.0 | 0.0 | 0.03 | 0.89 | 0.89 | 100 | 1011.7 |